When you browse on this site, cookies collect data to enhance your experience and personalize the content and advertising you see.
Visit our Privacy Policy to learn more. By continuing to use the site, you agree to this use of cookies and data.
  • In Hungary
  • List of Countries
  • For 7 days
  • Water Temperature
  • Satellite Maps
  • Weather Map
  • News
  • Weather Widgets
  • user-avatar
    Login

    Hourly Weather Chernomorskoe

    Today, 19 January, Saturday

    Time Temperature Precipitation Wind Pressure Humidity
    00:00 +4°C° 0 mm 6 mps 754 mmHg 93%
    01:00 +5°C° 0 mm 6 mps 754 mmHg 92%
    02:00 +5°C° 0 mm 6 mps 754 mmHg 92%
    03:00 +4°C° 0 mm 6 mps 754 mmHg 93%
    04:00 +4°C° 0 mm 6 mps 754 mmHg 94%
    05:00 +5°C° 0 mm 5 mps 754 mmHg 95%
    06:00 +4°C° 0 mm 6 mps 754 mmHg 93%
    07:00 +3°C° 0 mm 6 mps 754 mmHg 90%
    08:00 +2°C° 0 mm 6 mps 755 mmHg 87%
    09:00 +2°C° 0 mm 6 mps 755 mmHg 84%
    10:00 +2°C° 0 mm 7 mps 756 mmHg 81%
    11:00 +2°C° 0 mm 7 mps 756 mmHg 78%
    12:00 +2°C° 0 mm 7 mps 757 mmHg 77%
    13:00 +2°C° 0 mm 7 mps 757 mmHg 77%
    14:00 +3°C° 0 mm 7 mps 757 mmHg 76%
    15:00 +2°C° 0 mm 7 mps 758 mmHg 77%
    16:00 0°C° 0 mm 7 mps 758 mmHg 79%
    17:00 0°C° 0 mm 7 mps 759 mmHg 80%
    18:00 -1°C° 0 mm 7 mps 759 mmHg 80%
    19:00 -1°C° 0 mm 7 mps 759 mmHg 81%
    20:00 -2°C° 0 mm 7 mps 759 mmHg 81%
    21:00 -2°C° 0 mm 6 mps 760 mmHg 81%
    22:00 -3°C° 0 mm 6 mps 760 mmHg 80%
    23:00 -3°C° 0 mm 6 mps 760 mmHg 79%

    Tomorrow, 20 January, Sunday

    Time Temperature Precipitation Wind Pressure Humidity
    00:00 -3°C° 0 mm 6 mps 760 mmHg 77%
    01:00 -4°C° 0 mm 6 mps 760 mmHg 76%
    02:00 -4°C° 0 mm 6 mps 760 mmHg 74%
    03:00 -4°C° 0 mm 6 mps 760 mmHg 74%
    04:00 -4°C° 0 mm 6 mps 760 mmHg 73%
    05:00 -4°C° 0 mm 6 mps 760 mmHg 73%
    06:00 -4°C° 0 mm 6 mps 760 mmHg 73%
    07:00 -4°C° 0 mm 6 mps 760 mmHg 73%
    08:00 -4°C° 0 mm 6 mps 760 mmHg 73%
    09:00 -3°C° 0 mm 6 mps 760 mmHg 72%
    10:00 -1°C° 0 mm 5 mps 760 mmHg 72%
    11:00 -1°C° 0 mm 5 mps 760 mmHg 71%
    12:00 0°C° 0 mm 4 mps 759 mmHg 69%
    13:00 +1°C° 0 mm 4 mps 758 mmHg 68%
    14:00 +3°C° 0 mm 3 mps 758 mmHg 67%
    15:00 +1°C° 0 mm 4 mps 758 mmHg 70%
    16:00 +1°C° 0 mm 4 mps 757 mmHg 73%
    17:00 0°C° 0 mm 4 mps 757 mmHg 77%
    18:00 0°C° 0 mm 4 mps 757 mmHg 78%
    19:00 0°C° 0 mm 4 mps 757 mmHg 79%
    20:00 0°C° 0 mm 5 mps 757 mmHg 80%
    21:00 +1°C° 0.1 mm 5 mps 756 mmHg 81%
    22:00 +1°C° 0.1 mm 5 mps 756 mmHg 83%
    23:00 +2°C° 0.1 mm 6 mps 756 mmHg 84%

    Day after tomorrow, 21 January, Monday

    Time Temperature Precipitation Wind Pressure Humidity
    00:00 +2°C° 0 mm 6 mps 755 mmHg 86%
    01:00 +2°C° 0 mm 6 mps 755 mmHg 87%
    02:00 +2°C° 0 mm 7 mps 754 mmHg 88%
    03:00 +3°C° 0.2 mm 7 mps 754 mmHg 88%
    04:00 +3°C° 0.2 mm 7 mps 753 mmHg 87%
    05:00 +4°C° 0.2 mm 8 mps 753 mmHg 87%
    06:00 +4°C° 0.1 mm 8 mps 752 mmHg 86%
    07:00 +5°C° 0.1 mm 8 mps 752 mmHg 86%
    08:00 +5°C° 0.1 mm 9 mps 752 mmHg 85%
    09:00 +5°C° 0.3 mm 8 mps 752 mmHg 89%
    10:00 +5°C° 0.3 mm 7 mps 752 mmHg 92%
    11:00 +5°C° 0.3 mm 6 mps 752 mmHg 95%
    12:00 +4°C° 0.1 mm 7 mps 752 mmHg 93%
    13:00 +4°C° 0.1 mm 7 mps 752 mmHg 91%
    14:00 +4°C° 0.1 mm 8 mps 752 mmHg 89%
    15:00 +2°C° 0 mm 8 mps 753 mmHg 89%
    16:00 +1°C° 0 mm 8 mps 754 mmHg 89%
    17:00 +1°C° 0 mm 8 mps 754 mmHg 88%
    18:00 0°C° 0 mm 8 mps 755 mmHg 88%
    19:00 -1°C° 0 mm 8 mps 755 mmHg 87%
    20:00 -1°C° 0 mm 8 mps 756 mmHg 86%
    21:00 -1°C° 0 mm 7 mps 756 mmHg 85%
    22:00 -2°C° 0 mm 7 mps 757 mmHg 84%
    23:00 -2°C° 0 mm 7 mps 757 mmHg 84%

    22 January, Tuesday

    Time Temperature Precipitation Wind Pressure Humidity
    00:00 -2°C° 0 mm 7 mps 758 mmHg 84%
    01:00 -3°C° 0 mm 7 mps 758 mmHg 84%
    02:00 -3°C° 0 mm 7 mps 758 mmHg 84%
    03:00 -4°C° 0 mm 6 mps 758 mmHg 84%
    04:00 -4°C° 0 mm 6 mps 758 mmHg 84%
    05:00 -5°C° 0 mm 5 mps 758 mmHg 83%
    06:00 -5°C° 0 mm 5 mps 759 mmHg 82%
    07:00 -4°C° 0 mm 4 mps 759 mmHg 81%
    08:00 -4°C° 0 mm 4 mps 759 mmHg 80%
    09:00 -2°C° 0 mm 3 mps 759 mmHg 78%
    10:00 -2°C° 0 mm 3 mps 759 mmHg 75%
    11:00 -1°C° 0 mm 2 mps 759 mmHg 72%
    12:00 -1°C° 0 mm 2 mps 759 mmHg 71%
    13:00 +1°C° 0 mm 2 mps 758 mmHg 69%
    14:00 +1°C° 0 mm 2 mps 758 mmHg 68%
    15:00 +1°C° 0 mm 2 mps 758 mmHg 71%
    16:00 -1°C° 0 mm 2 mps 757 mmHg 74%
    17:00 -1°C° 0 mm 3 mps 757 mmHg 78%
    18:00 -1°C° 0 mm 3 mps 757 mmHg 80%
    19:00 -2°C° 0 mm 3 mps 757 mmHg 82%
    20:00 -3°C° 0 mm 4 mps 757 mmHg 85%
    21:00 -3°C° 0 mm 4 mps 756 mmHg 85%
    22:00 -2°C° 0 mm 4 mps 756 mmHg 86%
    23:00 -2°C° 0 mm 4 mps 755 mmHg 86%

    23 January, Wednesday

    Time Temperature Precipitation Wind Pressure Humidity
    00:00 -2°C° 0 mm 4 mps 755 mmHg 86%
    01:00 -1°C° 0 mm 4 mps 755 mmHg 85%
    02:00 -1°C° 0 mm 4 mps 754 mmHg 85%
    03:00 -1°C° 0 mm 5 mps 754 mmHg 85%
    04:00 -1°C° 0 mm 5 mps 753 mmHg 85%
    05:00 -3°C° 0 mm 6 mps 753 mmHg 85%
    06:00 -3°C° 0 mm 6 mps 752 mmHg 83%
    07:00 -3°C° 0 mm 7 mps 752 mmHg 82%
    08:00 -3°C° 0 mm 7 mps 752 mmHg 81%
    09:00 -1°C° 0 mm 7 mps 752 mmHg 77%
    10:00 0°C° 0 mm 7 mps 751 mmHg 73%
    11:00 +2°C° 0 mm 6 mps 751 mmHg 70%
    12:00 +3°C° 0 mm 7 mps 751 mmHg 69%
    13:00 +3°C° 0 mm 7 mps 750 mmHg 69%
    14:00 +4°C° 0 mm 7 mps 749 mmHg 69%
    15:00 +4°C° 0.1 mm 7 mps 749 mmHg 74%
    16:00 +4°C° 0.1 mm 7 mps 749 mmHg 78%
    17:00 +3°C° 0.1 mm 7 mps 749 mmHg 83%
    18:00 +3°C° 0.5 mm 7 mps 749 mmHg 85%
    19:00 +3°C° 0.5 mm 7 mps 748 mmHg 87%
    20:00 +2°C° 0.5 mm 8 mps 748 mmHg 89%
    21:00 +4°C° 0 mm 8 mps 748 mmHg 88%
    22:00 +4°C° 0 mm 7 mps 748 mmHg 87%
    23:00 +4°C° 0 mm 7 mps 748 mmHg 86%

    24 January, Thursday

    Time Temperature Precipitation Wind Pressure Humidity
    00:00 +4°C° 0.1 mm 7 mps 748 mmHg 86%
    01:00 +5°C° 0.1 mm 8 mps 747 mmHg 85%
    02:00 +5°C° 0.1 mm 8 mps 747 mmHg 85%
    03:00 +5°C° 0.3 mm 8 mps 747 mmHg 85%
    04:00 +5°C° 0.3 mm 8 mps 747 mmHg 84%
    05:00 +5°C° 0.3 mm 8 mps 747 mmHg 84%
    06:00 +5°C° 0.2 mm 8 mps 747 mmHg 85%
    07:00 +5°C° 0.2 mm 8 mps 747 mmHg 85%
    08:00 +5°C° 0.2 mm 8 mps 748 mmHg 86%
    09:00 +6°C° 0 mm 7 mps 748 mmHg 81%
    10:00 +8°C° 0 mm 7 mps 748 mmHg 76%
    11:00 +9°C° 0 mm 7 mps 748 mmHg 71%
    12:00 +10°C° 0 mm 6 mps 747 mmHg 68%
    13:00 +10°C° 0 mm 6 mps 747 mmHg 66%
    14:00 +10°C° 0 mm 5 mps 747 mmHg 64%
    15:00 +10°C° 0 mm 5 mps 746 mmHg 66%
    16:00 +9°C° 0 mm 5 mps 746 mmHg 69%
    17:00 +8°C° 0 mm 4 mps 746 mmHg 71%
    18:00 +8°C° 0 mm 4 mps 746 mmHg 73%
    19:00 +7°C° 0 mm 4 mps 746 mmHg 75%
    20:00 +7°C° 0 mm 5 mps 746 mmHg 77%
    21:00 +7°C° 0 mm 5 mps 746 mmHg 76%
    22:00 +7°C° 0 mm 5 mps 746 mmHg 75%
    23:00 +7°C° 0 mm 5 mps 746 mmHg 74%
    Show more